Weather Roundup
Issued by NWS

Home | Current Version | Previous Version | Text Only | Print | Product List | Glossary On
Versions: 1 2 3 4 5 6 7 8 9 10 11 12 13 14 15 16 17 18 19 20 21 22 23 24 25 26 27 28 29 30 31 32 33 34 35 36 37 38 39 40 41 42 43 44 45 46 47 48 49 50
803
NZUS93 KARX 190759
HRRWXR

CURRENT HOURLY OBSERVATIONS ACROSS
MUCH OF THE UPPER MISSISSIPPI VALLEY
NATIONAL WEATHER SERVICE LA CROSSE WI
200 AM CST SUN FEB 19 2017


...SOUTHEAST MINNESOTA...


CITY           SKY/WX    TMP DP  RH WIND       PRES   REMARKS
ROCHESTER      CLOUDY    33  33 100 S6        29.88R FOG     WCI  28
ROCHESTER/MAYO FAIR      37  38 100 CALM      29.88R
WINONA         CLEAR     30  30 100 CALM      29.91R
AUSTIN         FOG       30  28  93 CALM      29.88R VSB 1/4
ALBERT LEA     CLOUDY    30  30 100 CALM      29.88R
DODGE CENTER   CLOUDY    37  36  93 CALM      29.87R
PRESTON        CLEAR     39  38  95 CALM      29.89R
OWATONNA       PTCLDY    32  30  93 CALM      29.88R
FARIBAULT      CLOUDY    30  30 100 CALM      29.88R
$$

...ELSEWHERE IN MINNESOTA...


CITY           SKY/WX    TMP DP  RH WIND       PRES   REMARKS
MINNEAPOLIS    PTCLDY    36  32  85 CALM      29.88R
INTNL FALLS    CLOUDY    29  27  92 W3        29.86R
DULUTH         CLOUDY    38  31  76 NW5       29.86R WCI  34
RED WING       CLEAR     32  30  93 CALM      29.89R
REDWOOD FALLS  CLEAR     38  33  82 S7        29.84S WCI  33
MANKATO          N/A     37  36  96 S5        29.88R WCI  33
WORTHINGTON    PTCLDY    37  35  92 CALM      29.85S
FAIRMONT       PTCLDY    38  37  97 S3        29.88R
$$

...SOUTHWEST WISCONSIN...


CITY           SKY/WX    TMP DP  RH WIND       PRES   REMARKS
LA CROSSE      CLEAR     35  31  85 SE5       29.89S WCI  31
PRAIRIE DU CHI CLEAR     30  29  94 CALM      29.91R
BOSCOBEL       CLEAR     28  26  92 CALM      29.91S FOG
LONE ROCK      NOT AVBL
PLATTEVILLE    CLOUDY    37  36  99 CALM      29.90R
FORT MC COY    CLEAR     27  25  95 CALM      29.90S
MAUSTON-NEW LI MOSUNNY   32  29  88 CALM      29.87R
VIROQUA        FAIR      42  34  73 CALM      29.89S
WIS DELLS      CLOUDY    32  29  90 S3        29.87S
$$

...ELSEWHERE IN WISCONSIN...


CITY           SKY/WX    TMP DP  RH WIND       PRES   REMARKS
MILWAUKEE      CLOUDY    38  29  70 CALM      29.88R
MADISON        CLEAR     30  29  96 CALM      29.89R
GREEN BAY      CLOUDY    40  33  76 W8        29.85R WCI  34
EAU CLAIRE     NOT AVBL
BLACK RVR FLS  FAIR      28  28 100 CALM      29.89R
MEDFORD        PTCLDY    39  32  77 W6        29.86S WCI  35
WAUSAU         PTCLDY    39  32  76 NW3       29.85R
WIS RAPIDS     MOCLDY    34  30  85 CALM      29.88R
MARSHFIELD     CLOUDY    36  31  82 NW6       29.86R WCI  31
RICE LAKE      CLEAR     33  31  93 CALM      29.89R
$$

...NORTHEAST IOWA...


CITY           SKY/WX    TMP DP  RH WIND       PRES   REMARKS
WATERLOO       FOG       28  27  96 CALM      29.90R VSB 1/4
DUBUQUE        CLOUDY    40  37  89 CALM      29.91R
DECORAH        CLEAR     36  36 100 CALM      29.88S FOG
MASON CITY     FOG       29  28  96 S5        29.89F VSB 1/4 WCI  24
CHARLES CITY   FOG       36  36 100 SE5       29.89F VSB 1/4 WCI  32
OELWEIN        CLOUDY    36  36 100 E7        29.90S WCI  30
$$

...ELSEWHERE IN IOWA...


CITY           SKY/WX    TMP DP  RH WIND       PRES   REMARKS
DES MOINES     CLOUDY    45  38  76 SE3       29.90R
IOWA CITY      PTCLDY    35  31  85 CALM      29.93R
FORT DODGE     MOCLDY    34  30  86 E3        29.88S VSB 1
MARSHALLTOWN   FOG       29  29 100 E3        29.89S VSB 1/4
CEDAR RAPIDS   CLOUDY    32  31  96 N7        29.90R WCI  26
$$

...NORTHERN ILLINOIS...


CITY           SKY/WX    TMP DP  RH WIND       PRES   REMARKS
CHICAGO-OHARE  PTCLDY    39  34  82 CALM      29.88R
CHICAGO-MIDWAY PTCLDY    45  34  65 CALM      29.89R
MOLINE         CLOUDY    33  28  81 CALM      29.90R
ROCKFORD       CLOUDY    33  30  88 W3        29.92R
PEORIA         CLEAR     38  35  89 CALM      29.92R
$$

NOTE: "FAIR" INDICATES FEW OR NO CLOUDS BELOW 12,000 FEET WITH NO
SIGNIFICANT WEATHER AND/OR OBSTRUCTIONS TO VISIBILITY. WIND
SPEEDS ARE IN MILES-PER-HOUR.




USA.gov is the U.S. government's official web portal to all federal, state and local government web resources and services.